OpenBCM V1.13 (Linux)

Packet Radio Mailbox

DB0FHN

[JN59NK Nuernberg]

 Login: GUEST





  
UA9FBV > KEPS     24.10.04 07:56l 165 Lines 7768 Bytes #999 (0) @ AMSAT
BID : ORB04297.N
Read: GUEST DL7NDR
Subj: 2Line Orbital Elements 04297.AMSAT
Path: DB0FHN<DB0RGB<OK0PPL<RZ6HXA<ER3KAZ<UA9FBV
Sent: 041024/0551Z @:UA9FBV.PRM.RUS.AS #:6664 [Perm] GATEWAY $:ORB04297.N
From: UA9FBV@UA9FBV.PRM.RUS.AS
To  : KEPS@AMSAT


HR AMSAT ORBITAL ELEMENTS FOR AMATEUR SATELLITES IN NASA FORMAT
FROM WA5QGD FORT WORTH,TX October 23, 2004
SEND SUBSCRIBE/UNSUBSCRIBE TO majordomo@amsat.org ONLY
BID: ORB04297.N

DECODE 2-LINE ELSETS WITH THE FOLLOWING KEY:
1 AAAAAU 00  0  0 BBBBB.BBBBBBBB  .CCCCCCCC  00000-0  00000-0 0  DDDZ
2 AAAAA EEE.EEEE FFF.FFFF GGGGGGG HHH.HHHH III.IIII JJ.JJJJJJJJKKKKKZ
KEY: A-CATALOGNUM B-EPOCHTIME C-DECAY D-ELSETNUM E-INCLINATION F-RAAN
G-ECCENTRICITY H-ARGPERIGEE I-MNANOM J-MNMOTION K-ORBITNUM Z-CHECKSUM

TO ALL RADIO AMATEURS BT

AO-07
1 07530U 74089B   04297.52590438 -.00000029  00000-0  10000-3 0  3373
2 07530 101.6672 342.1837 0012093 334.2439  25.8031 12.53569103369991
AO-10
1 14129U 83058B   04296.35809202 -.00000344  00000-0  10000-3 0  1146
2 14129  26.7232  65.4250 6033084 134.3621 294.7073  2.05870906160632
UO-11
1 14781U 84021B   04297.17451639  .00000380  00000-0  58838-4 0  6156
2 14781  98.1883 284.2088 0009995  46.9395 313.2643 14.79026532106761
RS-10/11
1 18129U 87054A   04297.43169642  .00000062  00000-0  51496-4 0  5265
2 18129  82.9262  53.2560 0011456 332.4275  27.6269 13.72746594868592
FO-20
1 20480U 90013C   04295.67563378 -.00000046  00000-0 -38565-4 0  7263
2 20480  99.0293 149.2280 0540821  60.2985 305.0824 12.83342209688901
RS-12/13
1 21089U 91007A   04296.84949295  .00000012  00000-0 -30856-5 0  7481
2 21089  82.9173  87.0250 0030152  23.4254 336.8275 13.74441654687896
RS-15
1 23439U 94085A   04295.91257964 -.00000039  00000-0  10597-3 0 08188
2 23439 064.8140 132.8956 0156524 358.5552 001.4903 11.27550123404525
FO-29
1 24278U 96046B   04297.26067062 -.00000007  00000-0  26882-4 0  8143
2 24278  98.5811  12.4251 0351422  70.0396 293.8226 13.52904444404156
SO-33
1 25509U 98061B   04297.32559197  .00000598  00000-0  10530-3 0  2209
2 25509  31.4333 291.3307 0356323 255.7569 100.3423 14.27882047312941
AO-40
1 26609U 00072B   04296.05263570 -.00000070  00000-0  10000-3 0  4505
2 26609   9.5437 337.9115 7962054 331.4564   2.2152  1.25585432 18265
UO-14
1 20437U 90005B   04297.01540501  .00000039  00000-0  29827-4 0  6214
2 20437  98.2053 313.9252 0010501 175.5103 184.6187 14.31375834770108
AO-16
1 20439U 90005D   04297.55254270  .00000026  00000-0  24973-4 0  3096
2 20439  98.2318 329.2017 0011236 181.4629 178.6533 14.31634430770230
WO-18
1 20441U 90005F   04297.77918445  .00000039  00000-0  30047-4 0  4997
2 20441  98.2478 333.5179 0011436 180.9840 179.1319 14.31709578770322
LO-19
1 20442U 90005G   04296.63763368  .00000046  00000-0  32330-4 0  2403
2 20442  98.2615 336.5663 0011546 184.7421 175.3649 14.31881147770222
UO-22
1 21575U 91050B   04296.75408260  .00000102  00000-0  45909-4 0  2355
2 21575  98.2111 265.5035 0008502  87.0741 273.1406 14.39422458696345
KO-23
1 22077U 92052B   04295.93885640 -.00000037  00000-0  10000-3 0 03099
2 22077 066.0859 285.4039 0010690 310.9680 049.0413 12.86426317572946
AO-27
1 22825U 93061C   04297.40949702  .00000028  00000-0  27262-4 0  9695
2 22825  98.2462 299.5828 0007682 239.1870 120.8565 14.29090160577400
IO-26
1 22826U 93061D   04297.55070207  .00000047  00000-0  34408-4 0  6437
2 22826  98.2442 301.0025 0008027 243.2517 116.7834 14.29327601577489
KO-25
1 22828U 93061F   04297.60015257  .00000095  00000-0  53044-4 0  9050
2 22828  98.2375 301.2818 0009339 215.5847 144.4717 14.29646894545710
TO-31
1 25396U 98043C   04297.20999315 -.00000043  00000-0  00000 0 0   896
2 25396  98.5626   5.2093 0003320 136.3095 223.8349 14.23638069326696
GO-32
1 25397U 98043D   04296.98548406 -.00000010  00000-0  14493-4 0  5864
2 25397  98.5519   2.9438 0001922 140.7421 219.4024 14.23054939326591
UO-36
1 25693U 99021A   04297.59397039  .00000022  00000-0  22676-4 0  5732
2 25693  64.5579 290.2539 0044731 242.3948 117.2609 14.78398754296845
SO-41
1 26545U 00057A   04297.07398292  .00000305  00000-0  59076-4 0  9096
2 26545  64.5585 307.8789 0023479 347.5008  12.5530 14.79883029219831
MO-46
1 26548U 00057D   04297.16348612  .00000530  00000-0  83866-4 0    95
2 26548  64.5575 293.1715 0023473 332.0047  27.9776 14.82442876220148
SO-42
1 26549U 00057E   04295.53239069  .00000179  00000-0  43440-4 0  9711
2 26549  64.5571 319.9565 0023037   0.6276 359.4850 14.78772851219466
NO-44
1 26931U 01043C   04297.04334213 -.00000096  00000-0 -51203-5 0  8803
2 26931  67.0504 118.5402 0006884 272.2662  87.7678 14.29328177159876
AO-49
1 27605U 02058A   04297.84251038  .00000086  00000-0  34868-4 0  5687
2 27605  64.5568 133.8760 0084148 286.2527  72.9307 14.71947307 99066
SO-50
1 27607U 02058C   04297.83934151  .00000236  00000-0  58783-4 0  5490
2 27607  64.5570 138.2082 0085254 285.3385  73.8274 14.70750272 98972
AO-51
1 28375U 04025K   04297.18641810  .00000034  00000-0  23765-4 0   914
2 28375  98.2460   2.7274 0083330 226.4376 132.9859 14.40397061 16497
NOAA-10
1 16969U 86073A   04297.44322867  .00000195  00000-0  98074-4 0  4399
2 16969  98.7622 296.6968 0013395 102.1800 258.0878 14.27218488941328
NOAA-11
1 19531U 88089A   04297.44166353  .00000083  00000-0  66166-4 0  2977
2 19531  98.8601  20.4559 0010828 260.0437  99.9533 14.14732867829458
NOAA-12
1 21263U 91032A   04297.41737278  .00000245  00000-0  12224-3 0  7847
2 21263  98.6824 283.8851 0013269  41.5422 318.6768 14.25420042698519
MET-3/5
1 21655U 91056A   04296.54314801  .00000051  00000-0  10000-3 0  6589
2 21655  82.5542 326.5513 0014091 104.5209 255.7476 13.16996662634039
MET-2/21
1 22782U 93055A   04297.86647188  .00000174  00000-0  14377-3 0   373
2 22782  82.5449  88.4479 0023616  68.1696 292.2004 13.83571999562893
OKEAN-4
1 23317U 94066A   04296.89983738  .00000427  00000-0  50788-4 0  4571
2 23317  82.5380 118.6074 0021673 194.6554 165.4035 14.81910878540767
NOAA-14
1 23455U 94089A   04297.44683771  .00000371  00000-0  22183-3 0  3210
2 23455  99.1264 335.5086 0008672 309.5821  50.4591 14.13499833506058
SICH-1
1 23657U 95046A   04296.89720753  .00000482  00000-0  59007-4 0  2610
2 23657  82.5263 259.4019 0023810 178.3367 181.7932 14.80944723492839
NOAA-15
1 25338U 98030A   04297.42956806  .00000048  00000-0  38925-4 0  7714
2 25338  98.5196 306.9453 0010276 335.4959  24.5734 14.24458404335041
RESURS
1 25394U 98043A   04297.56888028  .00000052  00000-0  41504-4 0  9304
2 25394  98.5697   7.1634 0002370 109.4797 250.6640 14.24028615326770
FENGYUN1
1 25730U 99025A   04297.06928544  .00000199  00000-0  13201-3 0  2613
2 25730  98.6070 302.3907 0015309  59.2106 301.0560 14.11781906281053
OKEAN-0
1 25860U 99039A   04297.19153585  .00000166  00000-0  33047-4 0  2650
2 25860  97.7850 327.1965 0000568  96.7970 263.3302 14.73129848283110
NOAA-16
1 26536U 00055A   04295.52393953 -.00000044  00000-0  43478-6 0   690
2 26536  98.9787 247.0457 0010961  24.6886 335.4851 14.12162529210377
NOAA-17
1 27453U 02032A   04295.11693140 -.00000049  00000-0 -23514-5 0   911
2 27453  98.6875   5.9420 0012142  33.6521 326.5446 14.23580940120825
HUBBLE
1 20580U 90037B   04296.45910607  .00000912  00000-0  59688-4 0  1902
2 20580  28.4694  17.3953 0004117 265.2946  94.7172 14.99359833594524
UARS
1 21701U 91063B   04297.13514027  .00000195  00000-0  32790-4 0  2921
2 21701  56.9796  70.8709 0004082 104.8821 255.2706 15.03643814717832
PO-34
1 25520U 98064B   04296.53969937  .00001153  00000-0  48858-4 0   373
2 25520  28.4595 100.6175 0005801 161.7418 198.3393 15.15805020330482
ISS
1 25544U 98067A   04297.96542328  .00022933  00000-0  19506-3 0  9804
2 25544  51.6373  28.6676 0008519 266.5357 265.8198 15.69455665338543
OO-38
1 26063U 00004C   04297.52847600  .00000076  00000-0  46595-4 0  1926
2 26063 100.2271 108.0069 0037007   1.7642 358.3661 14.35674381248337
NO-45
1 26932U 01043D   04297.31002062  .00000167  00000-0  97614-4 0  8765
2 26932  67.0553 117.4996 0006301 288.3715  71.6715 14.29447513159946


Read previous mail | Read next mail


 21.06.2026 08:23:14lGo back Go up